Tracking 19795 objects as of 20-Jul-2019
HD Live streaming from Space Station
objects crossing your sky now

NOAA 16 DEB

Track NOAA 16 DEB now!
10-day predictions


NORAD ID: 41281
Int'l Code: 2000-055GH
Perigee: 850.7 km
Apogee: 911.0 km
Inclination: 98.9 °
Period: 102.4 minutes
Semi major axis: 7251 km
RCS: Unknown
Launch date: September 21, 2000
Source: United States (US)
Launch site: AIR FORCE WESTERN TEST RANGE (AFWTR)

Note: This is SATELLITE DEBRIS
aabbcc
Your satellite tracking list
Your tracking list is empty




NASA's NSSDC Master Catalog

Two Line Element Set (TLE):
1 41281U 00055GH  19201.02087255  .00000650  00000-0  42105-3 0  9994
2 41281  98.8875 262.6446 0041625 167.6417 192.5782 14.05817091183117
Source of the keplerian elements: AFSPC